Tracking 28790 objects as of 19-Apr-2024
HD Live streaming from Space Station
objects crossing your sky now

STARLINK-2291

Track STARLINK-2291 now!
10-day predictions
STARLINK-2291 is classified as:


NORAD ID: 47862
Int'l Code: 2021-021C
Perigee: 553.4 km
Apogee: 555.4 km
Inclination: 53.1 °
Period: 95.6 minutes
Semi major axis: 6925 km
RCS: Unknown
Launch date: March 14, 2021
Source: United States (US)
Launch site: AIR FORCE EASTERN TEST RANGE (AFETR)
Your satellite tracking list
Your tracking list is empty




NASA's NSSDC Master Catalog

Two Line Element Set (TLE):
1 47862U 21021C   24110.17122837 -.00000089  00000-0  12899-4 0  9993
2 47862  53.0532 116.9854 0001476 102.7266 257.3888 15.06385943171928
Source of the keplerian elements: AFSPC